Flag for U.S.A. Weather past 2 weeks in Sterling Heights, Michigan, U.S.A.

Now
65 °F

Passing clouds.


Feels Like: 65 °F
Forecast: 65 / 80 °F
Wind: 12 mph from South

Location: Selfridge Air National Guard Base

Current Time: May 25, 2015 at 2:04:15 AM

Latest Report: May 25, 2015 at 12:58 AM


Visibility: 10 mi

Pressure: 30.05 "Hg

Humidity: 63%

Dew point: 52 °F

Location of Sterling HeightsLocation

Historic Weather in Sterling Heights — Graph

°F

Sterling Heights temperature yesterday

Maximum temperature yesterday: 78 °F (at 11:55 AM)
Minimum temperature yesterday: 49 °F (at 4:58 AM)
Average temperature yesterday: 64 °F

Past Weeks' High & Low Weather Summary

 TemperatureHumidityPressure
High83 °F (May 18, 3:55 PM)100% (May 11, 12:03 AM)30.51 "Hg (May 11, 12:03 AM)
Low34 °F (May 14, 4:58 AM)28% (May 22, 4:55 PM)29.77 "Hg (May 11, 6:55 PM)
Average58 °F70%30.11 "Hg
* Reported May 10 12:59 AM — May 25 12:58 AM, Sterling Heights, Weather by CustomWeather, © 2015

Note: Actual official high and low records may vary slightly from our data, if they occured in-between our weather recording intervals... More about our weather records

Advertising

Sterling Heights weather history for previous 24 hours

 ConditionsComfort  
Time TempWeatherWind HumidityBarometerVisibility
12:58 AM
Mon, May 25
65 °FPassing clouds.12 mph63%30.05 "Hg10 mi
11:58 PM
Sun, May 24
64 °FPassing clouds.9 mph61%30.06 "Hg10 mi
10:58 PM65 °FPassing clouds.8 mph62%30.08 "Hg10 mi
9:58 PM68 °FPassing clouds.8 mph56%30.08 "Hg10 mi
8:58 PM64 °FPassing clouds.2 mph73%30.09 "Hg10 mi
7:55 PM66 °FCloudy.6 mph66%30.13 "Hg10 mi
6:55 PM72 °FCloudy.5 mph59%30.15 "Hg10 mi
5:55 PM74 °FMostly cloudy.5 mph45%30.17 "Hg10 mi
4:55 PM74 °FCloudy.8 mph53%30.17 "Hg10 mi
3:55 PM75 °FMore clouds than sun.8 mph48%30.19 "Hg10 mi
2:55 PM74 °FMore clouds than sun.8 mph49%30.21 "Hg10 mi
1:55 PM76 °FBroken clouds.9 mph47%30.23 "Hg10 mi
12:55 PM77 °FBroken clouds.9 mph41%30.24 "Hg10 mi
11:55 AM78 °FPartly sunny.7 mph42%30.24 "Hg10 mi
10:55 AM77 °FPartly sunny.9 mph40%30.25 "Hg10 mi
9:55 AM71 °FPartly sunny.7 mph48%30.25 "Hg10 mi
8:55 AM66 °FPartly sunny.6 mph57%30.26 "Hg8 mi
7:55 AM59 °FPartly sunny.No wind71%30.27 "Hg10 mi
6:58 AM52 °FOvercast.No wind86%30.26 "Hg8 mi
5:58 AM50 °FPassing clouds.No wind83%30.25 "Hg9 mi
4:58 AM49 °FPassing clouds.No wind84%30.24 "Hg9 mi
3:58 AM49 °FPassing clouds.No wind79%30.24 "Hg10 mi
3:03 AM50 °FCool.N/A76%30.24 "HgN/A
2:58 AM50 °FClear.2 mph76%30.25 "Hg10 mi
Weather by CustomWeather, © 2015

See weather overviewHow to use our weather pages